| time (UTC) | temp C | wind direction | speed KPH | gust KPH | rain 1hr cm | rain 24hr cm | rain mn cm | humidity % | barometer mb |
| 20260903204647 | 24 | 337 | 6.4 | 12.9 | 0.00 | 0.00 | 0.00 | 94 | 981.8 |
| 20260903204147 | 25 | 323 | 3.2 | 6.4 | 0.00 | 0.00 | 0.00 | 93 | 981.8 |
| 20260903203646 | 25 | 305 | 4.8 | 6.4 | 0.00 | 0.00 | 0.00 | 92 | 981.7 |
| 20260903203146 | 25 | 306 | 4.8 | 6.4 | 0.00 | 0.00 | 0.00 | 90 | 981.6 |
| 20260903202646 | 25 | 328 | 3.2 | 6.4 | 0.00 | 0.00 | 0.00 | 89 | 981.3 |
| 20260903201625 | 25 | 263 | 4.8 | 8.0 | 0.00 | 0.00 | 0.00 | 88 | 981.1 |
| 20260903201124 | 25 | 233 | 1.6 | 3.2 | 0.00 | 0.00 | 0.00 | 88 | 981.0 |
| 20260903200624 | 25 | 0 | 0.0 | 0.0 | 0.00 | 0.00 | 0.00 | 87 | 980.9 |
| 20260903200124 | 25 | 256 | 1.6 | 3.2 | 0.00 | 0.00 | 0.00 | 87 | 980.8 |
| 20260903195624 | 25 | 320 | 1.6 | 3.2 | 0.00 | 0.00 | 0.00 | 87 | 980.8 |
| 20260903195123 | 25 | 308 | 1.6 | 3.2 | 0.00 | 0.00 | 0.00 | 87 | 980.8 |
| 20260903194623 | 26 | 321 | 3.2 | 4.8 | 0.00 | 0.00 | 0.00 | 87 | 980.7 |
| 20260903194123 | 26 | 58 | 1.6 | 4.8 | 0.00 | 0.00 | 0.00 | 87 | 980.7 |
| 20260903193101 | 26 | 324 | 1.6 | 6.4 | 0.00 | 0.00 | 0.00 | 86 | 980.7 |
| 20260903192601 | 26 | 336 | 3.2 | 6.4 | 0.00 | 0.00 | 0.00 | 85 | 980.8 |
| 20260903192101 | 26 | 250 | 1.6 | 4.8 | 0.00 | 0.00 | 0.00 | 86 | 980.8 |
| 20260903191600 | 26 | 320 | 3.2 | 4.8 | 0.00 | 0.00 | 0.00 | 85 | 980.7 |
| 20260903191100 | 26 | 329 | 6.4 | 9.7 | 0.00 | 0.00 | 0.00 | 85 | 980.8 |
| 20260903190600 | 26 | 331 | 4.8 | 8.0 | 0.00 | 0.00 | 0.00 | 84 | 980.7 |
| 20260903190100 | 26 | 72 | 3.2 | 6.4 | 0.00 | 0.00 | 0.00 | 84 | 980.7 |
| 20260903185600 | 26 | 350 | 8.0 | 14.5 | 0.00 | 0.00 | 0.00 | 82 | 980.9 |
| 20260903185059 | 26 | 324 | 4.8 | 6.4 | 0.00 | 0.00 | 0.00 | 82 | 981.0 |
| 20260903184559 | 26 | 350 | 6.4 | 12.9 | 0.00 | 0.00 | 0.00 | 82 | 980.9 |
| 20260903183538 | 26 | 295 | 6.4 | 8.0 | 0.00 | 0.00 | 0.00 | 81 | 981.2 |
| 20260903182516 | 27 | 315 | 4.8 | 8.0 | 0.00 | 0.00 | 0.00 | 80 | 981.6 |
| 20260903182016 | 27 | 316 | 8.0 | 11.3 | 0.00 | 0.00 | 0.00 | 80 | 981.7 |
| 20260903181516 | 27 | 273 | 8.0 | 12.9 | 0.00 | 0.00 | 0.00 | 79 | 981.6 |
| 20260903181016 | 27 | 293 | 6.4 | 9.7 | 0.00 | 0.00 | 0.00 | 79 | 981.6 |
| 20260903180515 | 27 | 290 | 8.0 | 12.9 | 0.00 | 0.00 | 0.00 | 78 | 981.6 |
| 20260903180015 | 27 | 275 | 8.0 | 11.3 | 0.00 | 0.00 | 0.00 | 79 | 981.7 |
| 20260903175515 | 27 | 312 | 4.8 | 8.0 | 0.00 | 0.00 | 0.00 | 78 | 981.7 |
| 20260903175015 | 27 | 305 | 9.7 | 14.5 | 0.00 | 0.00 | 0.00 | 78 | 981.7 |
| 20260903174515 | 27 | 306 | 8.0 | 14.5 | 0.00 | 0.00 | 0.00 | 78 | 981.7 |
| 20260903173453 | 26 | 321 | 8.0 | 12.9 | 0.00 | 0.00 | 0.00 | 78 | 981.9 |
| 20260903172432 | 27 | 302 | 11.3 | 16.1 | 0.00 | 0.00 | 0.00 | 78 | 981.9 |
| 20260903171932 | 26 | 308 | 8.0 | 11.3 | 0.00 | 0.00 | 0.00 | 78 | 981.9 |
| 20260903171431 | 26 | 296 | 8.0 | 9.7 | 0.00 | 0.00 | 0.00 | 77 | 981.9 |
| 20260903170930 | 26 | 290 | 9.7 | 12.9 | 0.00 | 0.00 | 0.00 | 77 | 981.8 |
| 20260903170430 | 26 | 284 | 6.4 | 8.0 | 0.00 | 0.00 | 0.00 | 77 | 981.6 |
| 20260903165930 | 26 | 329 | 6.4 | 9.7 | 0.00 | 0.00 | 0.00 | 77 | 981.8 |
| 20260903165429 | 26 | 308 | 11.3 | 19.3 | 0.00 | 0.00 | 0.00 | 78 | 981.8 |
| 20260903164928 | 26 | 262 | 6.4 | 9.7 | 0.00 | 0.00 | 0.00 | 80 | 982.0 |
| 20260903164428 | 26 | 275 | 6.4 | 9.7 | 0.00 | 0.00 | 0.00 | 81 | 982.2 |
| 20260903163928 | 26 | 295 | 6.4 | 9.7 | 0.00 | 0.00 | 0.00 | 82 | 982.1 |
| 20260903162345 | 26 | 294 | 8.0 | 14.5 | 0.00 | 0.00 | 0.00 | 78 | 982.1 |
| 20260903161845 | 26 | 282 | 4.8 | 6.4 | 0.00 | 0.00 | 0.00 | 79 | 982.2 |
| 20260903161344 | 26 | 267 | 8.0 | 9.7 | 0.00 | 0.00 | 0.00 | 80 | 982.2 |
| 20260903160844 | 26 | 275 | 8.0 | 12.9 | 0.00 | 0.00 | 0.00 | 79 | 982.2 |
| 20260903160343 | 26 | 287 | 8.0 | 9.7 | 0.00 | 0.00 | 0.00 | 78 | 982.2 |
| 20260903155843 | 26 | 271 | 3.2 | 4.8 | 0.00 | 0.00 | 0.00 | 77 | 982.0 |
| 20260903155343 | 26 | 70 | 4.8 | 8.0 | 0.00 | 0.00 | 0.00 | 78 | 981.9 |
| 20260903154322 | 26 | 348 | 3.2 | 6.4 | 0.00 | 0.00 | 0.00 | 79 | 982.0 |
| 20260903153300 | 26 | 206 | 1.6 | 3.2 | 0.00 | 0.00 | 0.00 | 79 | 982.0 |
| 20260903151717 | 25 | 192 | 4.8 | 11.3 | 0.00 | 0.00 | 0.00 | 85 | 982.0 |
| 20260903151217 | 25 | 264 | 1.6 | 3.2 | 0.00 | 0.00 | 0.00 | 84 | 982.1 |
| 20260903150717 | 25 | 165 | 4.8 | 9.7 | 0.00 | 0.00 | 0.00 | 86 | 982.2 |
| 20260903145655 | 24 | 100 | 1.6 | 3.2 | 0.00 | 0.00 | 0.00 | 88 | 982.2 |
| 20260903145155 | 23 | 247 | 1.6 | 4.8 | 0.00 | 0.00 | 0.00 | 88 | 982.3 |
| 20260903144654 | 23 | 241 | 3.2 | 4.8 | 0.00 | 0.00 | 0.00 | 90 | 982.3 |
| 20260903143633 | 23 | 163 | 1.6 | 3.2 | 0.00 | 0.00 | 0.00 | 92 | 982.2 |
| 20260903143132 | 23 | 236 | 1.6 | 3.2 | 0.00 | 0.00 | 0.00 | 93 | 982.2 |
| 20260903142110 | 22 | 284 | 1.6 | 1.6 | 0.00 | 0.00 | 0.00 | 97 | 982.2 |
| 20260903141610 | 21 | 163 | 1.6 | 4.8 | 0.00 | 0.00 | 0.00 | 97 | 982.2 |
| 20260903141110 | 21 | 221 | 1.6 | 3.2 | 0.00 | 0.00 | 0.00 | 97 | 982.3 |
| 20260903140610 | 21 | 215 | 1.6 | 3.2 | 0.00 | 0.00 | 0.00 | 97 | 982.2 |
| 20260903135547 | 20 | 245 | 3.2 | 4.8 | 0.00 | 0.00 | 0.00 | 98 | 982.3 |
| 20260903135046 | 21 | 246 | 3.2 | 4.8 | 0.00 | 0.00 | 0.00 | 98 | 982.2 |
| 20260903134546 | 21 | 169 | 3.2 | 6.4 | 0.00 | 0.00 | 0.00 | 99 | 982.2 |
| 20260903134046 | 20 | 280 | 4.8 | 6.4 | 0.00 | 0.00 | 0.00 | 99 | 982.3 |
| 20260903133024 | 20 | 294 | 6.4 | 9.7 | 0.00 | 0.00 | 0.00 | 99 | 982.4 |
| 20260903132524 | 20 | 309 | 11.3 | 17.7 | 0.00 | 0.00 | 0.00 | 99 | 982.5 |
| 20260903132024 | 20 | 294 | 3.2 | 4.8 | 0.00 | 0.00 | 0.00 | 99 | 982.5 |
| 20260903131524 | 20 | 309 | 6.4 | 11.3 | 0.00 | 0.00 | 0.00 | 99 | 982.5 |
| 20260903131023 | 20 | 261 | 1.6 | 3.2 | 0.00 | 0.00 | 0.00 | 99 | 982.6 |
| 20260903130523 | 20 | 328 | 3.2 | 4.8 | 0.00 | 0.00 | 0.00 | 99 | 982.6 |
| 20260903130023 | 20 | 307 | 4.8 | 6.4 | 0.00 | 0.00 | 0.00 | 99 | 982.6 |
| 20260903125523 | 20 | 327 | 3.2 | 4.8 | 0.00 | 0.00 | 0.00 | 99 | 982.7 |
| 20260903125022 | 20 | 7 | 3.2 | 3.2 | 0.00 | 0.00 | 0.00 | 99 | 982.6 |
| 20260903124522 | 20 | 323 | 4.8 | 4.8 | 0.00 | 0.00 | 0.00 | 99 | 982.6 |
| 20260903124022 | 20 | 340 | 3.2 | 3.2 | 0.00 | 0.00 | 0.00 | 99 | 982.6 |
| 20260903123522 | 20 | 317 | 3.2 | 4.8 | 0.00 | 0.00 | 0.00 | 99 | 982.7 |
| 20260903123021 | 20 | 347 | 4.8 | 4.8 | 0.00 | 0.00 | 0.00 | 99 | 982.6 |
| 20260903122520 | 20 | 47 | 3.2 | 3.2 | 0.00 | 0.00 | 0.00 | 99 | 982.5 |
| 20260903121458 | 20 | 334 | 3.2 | 4.8 | 0.00 | 0.00 | 0.00 | 99 | 982.6 |
| 20260903120958 | 20 | 136 | 4.8 | 8.0 | 0.00 | 0.00 | 0.00 | 99 | 982.5 |
| 20260903120458 | 20 | 24 | 3.2 | 3.2 | 0.00 | 0.00 | 0.00 | 99 | 982.5 |
| 20260903115958 | 20 | 346 | 3.2 | 3.2 | 0.00 | 0.00 | 0.00 | 99 | 982.5 |
| 20260903115457 | 20 | 317 | 3.2 | 4.8 | 0.00 | 0.00 | 0.00 | 99 | 982.4 |
| 20260903114957 | 20 | 260 | 3.2 | 4.8 | 0.00 | 0.00 | 0.00 | 99 | 982.4 |
| 20260903114457 | 20 | 348 | 3.2 | 3.2 | 0.00 | 0.00 | 0.00 | 99 | 982.4 |
| 20260903113957 | 20 | 353 | 4.8 | 4.8 | 0.00 | 0.00 | 0.00 | 99 | 982.3 |
| 20260903112936 | 20 | 337 | 3.2 | 3.2 | 0.00 | 0.00 | 0.00 | 99 | 982.3 |
| 20260903112435 | 20 | 336 | 3.2 | 3.2 | 0.00 | 0.00 | 0.00 | 99 | 982.2 |
| 20260903111935 | 20 | 337 | 3.2 | 3.2 | 0.00 | 0.00 | 0.00 | 99 | 982.2 |
| 20260903110914 | 20 | 340 | 3.2 | 3.2 | 0.00 | 0.00 | 0.00 | 99 | 982.3 |
| 20260903110413 | 19 | 337 | 3.2 | 3.2 | 0.00 | 0.00 | 0.00 | 99 | 982.1 |
| 20260903105913 | 19 | 354 | 4.8 | 4.8 | 0.00 | 0.00 | 0.00 | 99 | 982.0 |
| 20260903105413 | 19 | 345 | 3.2 | 3.2 | 0.00 | 0.00 | 0.00 | 99 | 982.0 |
| 20260903104912 | 19 | 352 | 3.2 | 4.8 | 0.00 | 0.00 | 0.00 | 98 | 982.0 |
| 20260903104411 | 19 | 309 | 3.2 | 4.8 | 0.00 | 0.00 | 0.00 | 98 | 982.0 |
| 20260903103350 | 19 | 333 | 3.2 | 3.2 | 0.00 | 0.00 | 0.00 | 98 | 982.0 |
| 20260903102850 | 19 | 342 | 3.2 | 4.8 | 0.00 | 0.00 | 0.00 | 98 | 982.0 |
| 20260903102350 | 19 | 339 | 3.2 | 3.2 | 0.00 | 0.00 | 0.00 | 98 | 982.0 |
| 20260903101328 | 19 | 352 | 3.2 | 4.8 | 0.00 | 0.00 | 0.00 | 98 | 982.0 |
| 20260903100828 | 19 | 339 | 3.2 | 3.2 | 0.00 | 0.00 | 0.00 | 98 | 982.0 |
| 20260903100328 | 19 | 342 | 3.2 | 3.2 | 0.00 | 0.00 | 0.00 | 98 | 981.9 |
| 20260903095828 | 19 | 335 | 3.2 | 3.2 | 0.00 | 0.00 | 0.00 | 98 | 981.8 |
| 20260903095327 | 19 | 151 | 3.2 | 6.4 | 0.00 | 0.00 | 0.00 | 98 | 981.8 |
| 20260903094827 | 19 | 332 | 1.6 | 4.8 | 0.00 | 0.00 | 0.00 | 98 | 981.7 |
| 20260903094327 | 19 | 343 | 3.2 | 3.2 | 0.00 | 0.00 | 0.00 | 98 | 981.7 |
| 20260903093827 | 19 | 331 | 1.6 | 1.6 | 0.00 | 0.00 | 0.00 | 98 | 981.5 |
| 20260903093327 | 19 | 340 | 3.2 | 4.8 | 0.00 | 0.00 | 0.00 | 98 | 981.5 |
| 20260903092826 | 19 | 101 | 3.2 | 4.8 | 0.00 | 0.00 | 0.00 | 98 | 981.4 |
| 20260903092326 | 19 | 30 | 3.2 | 4.8 | 0.00 | 0.00 | 0.00 | 98 | 981.3 |
| 20260903091826 | 18 | 60 | 3.2 | 4.8 | 0.00 | 0.00 | 0.00 | 98 | 981.3 |
| 20260903090804 | 18 | 336 | 1.6 | 3.2 | 0.00 | 0.00 | 0.00 | 98 | 981.2 |
| 20260903090304 | 19 | 135 | 3.2 | 4.8 | 0.00 | 0.00 | 0.00 | 98 | 981.2 |
| 20260903085804 | 19 | 336 | 1.6 | 3.2 | 0.00 | 0.00 | 0.00 | 98 | 981.2 |
| 20260903085306 | 19 | 333 | 1.6 | 3.2 | 0.00 | 0.00 | 0.00 | 98 | 981.2 |
| 20260903084803 | 19 | 337 | 1.6 | 3.2 | 0.00 | 0.00 | 0.00 | 98 | 981.2 |
| 20260903084303 | 19 | 344 | 3.2 | 3.2 | 0.00 | 0.00 | 0.00 | 98 | 981.2 |
| 20260903083803 | 19 | 1 | 3.2 | 3.2 | 0.00 | 0.00 | 0.00 | 98 | 981.1 |
| 20260903083302 | 19 | 344 | 3.2 | 3.2 | 0.00 | 0.00 | 0.00 | 98 | 981.0 |
| 20260903082802 | 19 | 14 | 3.2 | 3.2 | 0.00 | 0.00 | 0.00 | 98 | 981.0 |
| 20260903082305 | 19 | 347 | 3.2 | 3.2 | 0.00 | 0.00 | 0.00 | 98 | 980.9 |
| 20260903081240 | 19 | 337 | 1.6 | 1.6 | 0.00 | 0.00 | 0.00 | 98 | 981.1 |
| 20260903080740 | 19 | 339 | 3.2 | 3.2 | 0.00 | 0.00 | 0.00 | 98 | 981.2 |
| 20260903080240 | 19 | 341 | 3.2 | 3.2 | 0.00 | 0.00 | 0.00 | 98 | 981.2 |
| 20260903075740 | 19 | 347 | 3.2 | 3.2 | 0.00 | 0.00 | 0.00 | 98 | 981.1 |
| 20260903075239 | 20 | 155 | 4.8 | 6.4 | 0.00 | 0.00 | 0.00 | 98 | 981.1 |
| 20260903074739 | 20 | 44 | 3.2 | 3.2 | 0.00 | 0.00 | 0.00 | 98 | 981.1 |
| 20260903073718 | 20 | 338 | 1.6 | 1.6 | 0.00 | 0.00 | 0.00 | 98 | 981.1 |
| 20260903072135 | 20 | 330 | 1.6 | 1.6 | 0.00 | 0.00 | 0.00 | 98 | 980.8 |
| 20260903071635 | 20 | 340 | 3.2 | 3.2 | 0.00 | 0.00 | 0.00 | 98 | 980.7 |
| 20260903071135 | 20 | 8 | 3.2 | 4.8 | 0.00 | 0.00 | 0.00 | 98 | 980.7 |
| 20260903070634 | 20 | 128 | 3.2 | 3.2 | 0.00 | 0.00 | 0.00 | 98 | 980.8 |
| 20260903070134 | 20 | 153 | 3.2 | 4.8 | 0.00 | 0.00 | 0.00 | 98 | 980.8 |
| 20260903065634 | 20 | 344 | 3.2 | 3.2 | 0.00 | 0.00 | 0.00 | 98 | 980.9 |
| 20260903065134 | 20 | 337 | 1.6 | 3.2 | 0.00 | 0.00 | 0.00 | 98 | 981.0 |
| 20260903063030 | 20 | 142 | 3.2 | 4.8 | 0.00 | 0.00 | 0.00 | 98 | 981.2 |
| 20260903062530 | 20 | 143 | 4.8 | 4.8 | 0.00 | 0.00 | 0.00 | 98 | 981.3 |
| 20260903061508 | 20 | 342 | 3.2 | 3.2 | 0.00 | 0.00 | 0.00 | 98 | 981.5 |
| 20260903061008 | 20 | 331 | 1.6 | 1.6 | 0.00 | 0.00 | 0.00 | 98 | 981.5 |
| 20260903060508 | 20 | 137 | 4.8 | 4.8 | 0.00 | 0.00 | 0.00 | 98 | 981.4 |
| 20260903060008 | 20 | 341 | 3.2 | 3.2 | 0.00 | 0.00 | 0.00 | 98 | 981.5 |
| 20260903055507 | 20 | 332 | 1.6 | 3.2 | 0.00 | 0.00 | 0.00 | 98 | 981.5 |
| 20260903055007 | 20 | 339 | 3.2 | 4.8 | 0.00 | 0.00 | 0.00 | 98 | 981.7 |
| 20260903053425 | 20 | 333 | 3.2 | 3.2 | 0.00 | 0.00 | 0.00 | 98 | 981.6 |
| 20260903052924 | 20 | 133 | 3.2 | 4.8 | 0.00 | 0.00 | 0.00 | 97 | 981.5 |
| 20260903052424 | 20 | 147 | 4.8 | 4.8 | 0.00 | 0.00 | 0.00 | 98 | 981.5 |
| 20260903051924 | 20 | 134 | 3.2 | 4.8 | 0.00 | 0.00 | 0.00 | 97 | 981.4 |
| 20260903051424 | 20 | 180 | 3.2 | 4.8 | 0.00 | 0.00 | 0.00 | 97 | 981.5 |
| 20260903050924 | 20 | 101 | 1.6 | 3.2 | 0.00 | 0.00 | 0.00 | 97 | 981.4 |
| 20260903050423 | 20 | 345 | 1.6 | 4.8 | 0.00 | 0.00 | 0.00 | 97 | 981.4 |
| 20260903045402 | 20 | 134 | 3.2 | 6.4 | 0.00 | 0.00 | 0.00 | 97 | 981.3 |
| 20260903044902 | 20 | 124 | 3.2 | 4.8 | 0.00 | 0.00 | 0.00 | 97 | 981.5 |
| 20260903044402 | 20 | 0 | 0.0 | 0.0 | 0.00 | 0.00 | 0.00 | 97 | 981.4 |
| 20260903043340 | 20 | 133 | 1.6 | 4.8 | 0.00 | 0.00 | 0.00 | 97 | 980.9 |
| 20260903042840 | 20 | 333 | 1.6 | 1.6 | 0.00 | 0.00 | 0.00 | 97 | 980.8 |
| 20260903041818 | 20 | 328 | 1.6 | 1.6 | 0.00 | 0.00 | 0.00 | 97 | 980.6 |
| 20260903041317 | 20 | 341 | 1.6 | 3.2 | 0.00 | 0.00 | 0.00 | 97 | 980.4 |
| 20260903040256 | 20 | 83 | 3.2 | 3.2 | 0.00 | 0.00 | 0.00 | 97 | 980.6 |
| 20260903035756 | 20 | 127 | 3.2 | 6.4 | 0.00 | 0.00 | 0.00 | 97 | 980.7 |
| 20260903035255 | 20 | 313 | 3.2 | 4.8 | 0.00 | 0.00 | 0.00 | 97 | 980.3 |
| 20260903034755 | 20 | 95 | 3.2 | 3.2 | 0.00 | 0.00 | 0.00 | 97 | 980.2 |
| 20260903034255 | 20 | 291 | 1.6 | 3.2 | 0.00 | 0.00 | 0.00 | 97 | 980.2 |
| 20260903033755 | 20 | 358 | 3.2 | 3.2 | 0.00 | 0.00 | 0.00 | 97 | 980.0 |
| 20260903033254 | 20 | 340 | 3.2 | 4.8 | 0.00 | 0.00 | 0.00 | 97 | 980.0 |
| 20260903032754 | 20 | 101 | 1.6 | 3.2 | 0.00 | 0.00 | 0.00 | 97 | 980.0 |
| 20260903032254 | 20 | 331 | 1.6 | 1.6 | 0.00 | 0.00 | 0.00 | 97 | 980.1 |
| 20260903031754 | 20 | 339 | 1.6 | 1.6 | 0.00 | 0.00 | 0.00 | 97 | 980.2 |
| 20260903031254 | 20 | 140 | 4.8 | 6.4 | 0.00 | 0.00 | 0.00 | 96 | 980.3 |
| 20260903030753 | 20 | 124 | 1.6 | 3.2 | 0.00 | 0.00 | 0.00 | 96 | 980.7 |
| 20260903030253 | 20 | 319 | 1.6 | 3.2 | 0.00 | 0.00 | 0.00 | 96 | 980.6 |
| 20260903025753 | 20 | 326 | 1.6 | 1.6 | 0.00 | 0.00 | 0.00 | 96 | 980.7 |
| 20260903025253 | 20 | 324 | 1.6 | 4.8 | 0.00 | 0.00 | 0.00 | 96 | 980.6 |
| 20260903024752 | 20 | 329 | 1.6 | 1.6 | 0.00 | 0.00 | 0.00 | 96 | 980.6 |
| 20260903024252 | 20 | 318 | 3.2 | 3.2 | 0.00 | 0.00 | 0.00 | 95 | 980.6 |
| 20260903023752 | 20 | 146 | 4.8 | 8.0 | 0.00 | 0.00 | 0.00 | 95 | 981.1 |
| 20260903023252 | 20 | 301 | 3.2 | 6.4 | 0.00 | 0.00 | 0.00 | 95 | 981.1 |
| 20260903022230 | 20 | 277 | 3.2 | 4.8 | 0.00 | 0.00 | 0.00 | 95 | 980.8 |
| 20260903021730 | 20 | 335 | 1.6 | 3.2 | 0.00 | 0.00 | 0.00 | 95 | 981.1 |
| 20260903021230 | 20 | 81 | 4.8 | 9.7 | 0.00 | 0.00 | 0.00 | 96 | 981.2 |
| 20260903020729 | 20 | 55 | 3.2 | 4.8 | 0.00 | 0.00 | 0.00 | 96 | 982.0 |
| 20260903020228 | 20 | 14 | 4.8 | 8.0 | 0.00 | 0.00 | 0.00 | 97 | 982.2 |
| 20260903015728 | 20 | 340 | 4.8 | 6.4 | 0.00 | 0.00 | 0.00 | 97 | 981.9 |
| 20260903014706 | 20 | 0 | 3.2 | 4.8 | 0.00 | 0.00 | 0.00 | 97 | 981.2 |
| 20260903014206 | 20 | 147 | 8.0 | 9.7 | 0.00 | 0.00 | 0.00 | 97 | 981.2 |
| 20260903013145 | 20 | 61 | 3.2 | 4.8 | 0.00 | 0.00 | 0.00 | 97 | 981.4 |
| 20260903012645 | 20 | 326 | 3.2 | 4.8 | 0.00 | 0.00 | 0.00 | 97 | 981.4 |
| 20260903012144 | 20 | 334 | 3.2 | 3.2 | 0.00 | 0.00 | 0.00 | 97 | 981.6 |
| 20260903011644 | 20 | 335 | 3.2 | 3.2 | 0.00 | 0.00 | 0.00 | 97 | 981.7 |
| 20260903010101 | 20 | 135 | 4.8 | 8.0 | 0.00 | 0.00 | 0.00 | 96 | 981.0 |
| 20260903005601 | 20 | 139 | 6.4 | 9.7 | 0.00 | 0.00 | 0.00 | 96 | 981.3 |
| 20260903005100 | 20 | 317 | 3.2 | 4.8 | 0.00 | 0.00 | 0.00 | 96 | 981.3 |
| 20260903004600 | 20 | 329 | 3.2 | 3.2 | 0.00 | 0.00 | 0.00 | 96 | 981.1 |
| 20260903004059 | 20 | 150 | 3.2 | 6.4 | 0.00 | 0.00 | 0.00 | 96 | 981.2 |
| 20260903003558 | 20 | 160 | 4.8 | 8.0 | 0.00 | 0.00 | 0.00 | 96 | 981.2 |
| 20260903003058 | 20 | 330 | 1.6 | 1.6 | 0.00 | 0.00 | 0.00 | 96 | 981.1 |
| 20260903002037 | 20 | 152 | 9.7 | 11.3 | 0.00 | 0.00 | 0.00 | 96 | 981.1 |
| 20260903000454 | 20 | 252 | 4.8 | 6.4 | 0.00 | 0.00 | 0.00 | 96 | 981.4 |
| 20260902235953 | 20 | 323 | 1.6 | 3.2 | 0.00 | 0.00 | 0.00 | 96 | 980.4 |
| 20260902235453 | 20 | 324 | 1.6 | 3.2 | 0.00 | 0.00 | 0.00 | 96 | 980.5 |
| 20260902234432 | 20 | 346 | 3.2 | 8.0 | 0.00 | 0.00 | 0.00 | 96 | 980.6 |
| 20260902233931 | 20 | 15 | 4.8 | 11.3 | 0.00 | 0.00 | 0.00 | 96 | 980.9 |
| 20260902233431 | 20 | 152 | 6.4 | 9.7 | 0.00 | 0.00 | 0.00 | 96 | 981.5 |
| 20260902232930 | 20 | 328 | 3.2 | 6.4 | 0.00 | 0.00 | 0.00 | 96 | 981.6 |
| 20260902232430 | 20 | 159 | 6.4 | 11.3 | 0.00 | 0.00 | 0.00 | 96 | 981.5 |
| 20260902231930 | 20 | 206 | 6.4 | 9.7 | 0.00 | 0.00 | 0.00 | 96 | 981.2 |
| 20260902231429 | 20 | 152 | 8.0 | 9.7 | 0.00 | 0.00 | 0.00 | 96 | 981.0 |
| 20260902230408 | 20 | 119 | 3.2 | 6.4 | 0.00 | 0.00 | 0.00 | 95 | 980.5 |
| 20260902225908 | 20 | 10 | 3.2 | 4.8 | 0.00 | 0.00 | 0.00 | 95 | 980.6 |
| 20260902225407 | 20 | 99 | 4.8 | 8.0 | 0.00 | 0.00 | 0.00 | 96 | 980.9 |
| 20260902224907 | 20 | 154 | 6.4 | 9.7 | 0.00 | 0.00 | 0.00 | 95 | 981.0 |
| 20260902224407 | 20 | 167 | 6.4 | 9.7 | 0.00 | 0.00 | 0.00 | 95 | 981.0 |
| 20260902223346 | 20 | 161 | 8.0 | 9.7 | 0.00 | 0.00 | 0.00 | 95 | 980.1 |
| 20260902222845 | 20 | 147 | 3.2 | 6.4 | 0.00 | 0.00 | 0.00 | 95 | 980.2 |
| 20260902222344 | 20 | 18 | 3.2 | 4.8 | 0.00 | 0.00 | 0.00 | 95 | 980.4 |
| 20260902221844 | 20 | 122 | 6.4 | 9.7 | 0.00 | 0.00 | 0.00 | 95 | 980.9 |
| 20260902215739 | 20 | 11 | 9.7 | 14.5 | 0.00 | 0.00 | 0.00 | 94 | 981.7 |
| 20260902215239 | 21 | 60 | 9.7 | 16.1 | 0.00 | 0.00 | 0.00 | 92 | 982.1 |
| 20260902214738 | 21 | 21 | 8.0 | 14.5 | 0.00 | 0.00 | 0.00 | 90 | 982.0 |
| 20260902214238 | 22 | 37 | 12.9 | 19.3 | 0.00 | 0.00 | 0.00 | 87 | 981.0 |
| 20260902213738 | 23 | 344 | 9.7 | 19.3 | 0.00 | 0.00 | 0.00 | 86 | 981.4 |
| 20260902213237 | 24 | 352 | 4.8 | 8.0 | 0.00 | 0.00 | 0.00 | 94 | 980.3 |
| 20260902212737 | 24 | 193 | 1.6 | 3.2 | 0.00 | 0.00 | 0.00 | 94 | 979.6 |
| 20260902212236 | 24 | 0 | 0.0 | 0.0 | 0.00 | 0.00 | 0.00 | 94 | 979.2 |
| 20260902211736 | 25 | 169 | 1.6 | 3.2 | 0.00 | 0.00 | 0.00 | 95 | 979.3 |
| 20260902210714 | 25 | 186 | 3.2 | 6.4 | 0.00 | 0.00 | 0.00 | 94 | 979.7 |
| 20260902210214 | 24 | 277 | 3.2 | 4.8 | 0.00 | 0.00 | 0.00 | 93 | 979.9 |
| 20260902205714 | 23 | 315 | 4.8 | 9.7 | 0.00 | 0.00 | 0.00 | 92 | 980.1 |
| 20260902205213 | 23 | 52 | 3.2 | 4.8 | 0.00 | 0.00 | 0.00 | 95 | 979.9 |